Powrót do katalogu

BREEZE-M DEB

TANK

AktywnyHEO
NORAD 38654·DEBRIS·🇷🇺 Russia

Wystrzelony Jul 9, 2012 z Baikonur Cosmodrome

Loading…

Następne Przeloty (najbliższe 24 godziny)

TLE

ŚwieżeSource: Space-Track

Epoka: Sep 14, 2026, 10:27 UTC

1 38654U 12036C   26257.43576496  .00001838  00000-0  42840-3 0  9995
2 38654  49.6574  26.6435 5029787 267.9110  36.3616  5.54741564276723

Śledź BREEZE-M DEB w czasie rzeczywistym z AllMySat

Download on the App Store